Location: Niedergestelen
(46.3129°N, 7.7822°E)
Time: 20:01:38
(UTC+00:00)

Okean O Rocket - Pass Details

Date: 01 December 2020
Orbit: 622 x 645 km, 98.2° (Epoch: 27 January)

Event Time Altitude Azimuth Distance (km) Brightness Sun altitude
Rises 16:19:31 0° 146° (SE) 2,900 4.9 -6.2°
Reaches altitude 10° 16:21:46 10° 139° (SE) 2,001 4.0 -6.6°
Maximum altitude 16:25:52 42° 69° (ENE) 908 2.0 -7.2°
Drops below altitude 10° 16:30:01 10° 359° (N) 2,028 4.0 -7.9°
Sets 16:32:19 0° 353° (N) 2,945 4.9 -8.2°
